Regional Weather Roundup
Issued by NWS

Home | Current Version | Previous Version | Text Only | Print | Product List | Glossary On
Versions: 1 2 3 4 5 6 7 8 9 10 11 12 13 14 15 16 17 18 19 20 21 22 23 24 25 26 27 28 29 30 31 32 33 34 35 36 37 38 39 40 41 42 43 44 45 46 47 48 49 50
000
ASUS42 KTBW 221517
RWRFL
FLORIDA REGIONAL WEATHER ROUNDUP
NATIONAL WEATHER SERVICE TAMPA BAY RUSKIN FL
1100 AM EDT SAT JUL 22 2017

NOTE: "FAIR" INDICATES FEW OR NO CLOUDS BELOW 12,000 FEET WITH NO
SIGNIFICANT WEATHER AND/OR OBSTRUCTIONS TO VISIBILITY.

FLZ001>010-012>015-112-114-115-221600-
PANHANDLE FLORIDA

CITY           SKY/WX    TMP DP  RH WIND       PRES   REMARKS
PENSACOLA      MOSUNNY   89  75  63 CALM      30.04F HX  99
PENSACOLA NAS  MOSUNNY   87  72  60 W3        30.03F
MILTON NAS     CLOUDY    86  76  71 CALM      30.05S HX  96
CRESTVIEW      SUNNY     87  73  62 VRB3      30.07S
DUKE FIELD     FAIR      87  73  62 W3        30.05S
VALPARAISO     MOSUNNY   87  75  66 N5        30.05S HX  96
MARY ESTHER    MOSUNNY   88  78  72 CALM      30.03F HX 100
PANAMA CITY    FAIR      88  75  65 CALM      30.05F HX  97
TYNDALL AFB    MOSUNNY   86  75  70 CALM      30.06S HX  95
APALACHICOLA   PTSUNNY   86  78  77 N5        30.06S HX  98

STATION/POSITION SKY/WX   TEMP    WIND        PRES    WAVE   SWELL
                          AIR SEA DIR/SP/G            HT/PER HT/PER
                          (F)     (DEG/KT/KT) (MB)    (FT/S) (FT/S)
30.1N   87.6W              83 87   10/  4/  6 1017.2S   1/ 3
29.2N   88.2W              84 85  250/  2/  4 1017.5S   1
28.8N   86.0W              83 84   CALM  /  2 1018.1R   1/ 8
PANAMA CITY BEAC           83     230/  3/  4 1018.3F
TOWER C          NOT AVBL
28.5N   84.5W              84 87  250/ 10/ 10 1018.3R   1/ 3

$$
FLZ011-016>038-118-127-128-134-139-239-221600-
NORTH FLORIDA

CITY           SKY/WX    TMP DP  RH WIND       PRES   REMARKS
MARIANNA       SUNNY     87  76  69 W6        30.06S HX  97
TALLAHASSEE    MOSUNNY   86  76  71 SW5       30.07S HX  96
PERRY          PTSUNNY   86  75  69 CALM      30.08S HX  95
LIVE OAK       PTSUNNY   88  75  66 SW3       30.08F HX  97
CROSS CITY     PTSUNNY   86  78  75 S6        30.12S HX  98
LAKE CITY      PTSUNNY   86  77  74 S3        30.08F HX  97
GAINESVILLE    MOSUNNY   86  75  69 VRB5      30.10F HX  95
WILLISTON      SUNNY     88  75  66 S5        30.09S HX  97
PALATKA        FAIR      88  75  66 W3        30.09F HX  97
MAYPORT NAS    SUNNY     88  73  61 CALM      30.08S HX  95
JACKSONVILLE   MOSUNNY   87  74  64 SW5       30.08S HX  95
JAX NAS        MOSUNNY   86  76  71 SE7       30.08F HX  96
JAX CECIL      PTSUNNY   86  77  74 VRB3      30.08F HX  97
FERNANDINA BEA FAIR      90  73  58 CALM      30.07S HX  98
ST AUGUSTINE   PTSUNNY   88  76  67 SW8       30.09F HX  99
PALM COAST     MOSUNNY   86  73  66 SW5       30.09F

STATION/POSITION SKY/WX   TEMP    WIND        PRES    WAVE   SWELL
                          AIR SEA DIR/SP/G            HT/PER HT/PER
                          (F)     (DEG/KT/KT) (MB)    (FT/S) (FT/S)
SHELL POINT      NOT AVBL
KEATON BEACH               82     250/  9/ 13 1018.4R
CEDAR KEY                  81     190/  8/ 10 1018.8R
FERNANDINA                 88 83  260/  3/  4 1019.4F
30.7N   81.3W                 82                N/A     2/ 9
MAYPORT                    85 79  250/  2/  4 1019.0F
31.4N   80.9W              80 82  250/  8/ 10 1018.4R   2/ 9   2/ 9
ST AUGUSTINE               85 80  200/  2/  3 1019.4F

$$
FLZ040-043>046-052-053-057-058-063-144-221600-
INTERIOR CENTRAL FLORIDA

CITY           SKY/WX    TMP DP  RH WIND       PRES   REMARKS
OCALA          MOSUNNY   84  77  79 SW8       30.09F
THE VILLAGES     N/A     88  81  79 MISG      29.99F HX 105
LEESBURG       SUNNY     88  78  72 SW6       30.10F HX 101
SANFORD        MOSUNNY   87  75  67 VRB6      30.09F HX  96
ORLANDO EXEC   MOSUNNY   84  75  74 SW6       30.10S
ORLANDO INTL   MOSUNNY   84  77  79 S9        30.10S
KISSIMMEE      MOSUNNY   86  77  74 SW7       30.11F HX  97
WINTER HAVEN   PTSUNNY   86  75  69 S9        30.12S HX  95
LAKELAND       PTSUNNY   84  79  84 S9        30.10F HX  96
BARTOW         PTSUNNY   82  79  89 S8        30.11F
SEBRING        FAIR      88  72  59 SW5       30.11S HX  95
OKEECHOBEE     PTSUNNY   82  73  74 S5        30.12S

$$
FLZ041-047-054-059-064-141-147-221600-
EAST CENTRAL FLORIDA

CITY           SKY/WX    TMP DP  RH WIND       PRES   REMARKS
ORMOND BEACH   PTSUNNY   84  75  74 SW8       30.09F
DAYTONA BEACH  PTSUNNY   87  76  69 S6        30.10S HX  97
DELAND         PTSUNNY   86  75  70 S8        30.09F HX  95
NEW SMYRNA BEA MOSUNNY   88  75  66 SW7       30.11S HX  97
TITUSVILLE     PTSUNNY   88  82  84 S9        30.11S HX 108
CAPE CANAVERAL SUNNY     89  78  70 W7        30.09F HX 102
PATRICK AFB    SUNNY     86  76  73 SW6       30.10F HX  96
MELBOURNE      MOSUNNY   87  77  72 SW5       30.10F HX  99
VERO BEACH     CLOUDY    86  75  69 W5        30.12R HX  95
FT PIERCE      CLOUDY    88  76  67 S6        30.11S HX  99
STUART         MOSUNNY   90  75  62 VRB5      30.12S HX 100

STATION/POSITION SKY/WX   TEMP    WIND        PRES    WAVE   SWELL
                          AIR SEA DIR/SP/G            HT/PER HT/PER
                          (F)     (DEG/KT/KT) (MB)    (FT/S) (FT/S)
28.5N   80.2W              81 82  240/ 10/ 12 1020.9R   2/ 9   2/ 9
28.9N   78.5W              84 85  200/ 12/ 14 1019.5R   3/ 8   2/ 8
TRIDENT PIER               83 82  200/  5/  7 1021.0F
28.4N   80.5W                 83                N/A     2/ 9
27.5N   80.2W                 82                N/A     1/ 9

$$
FLZ050-056-061-142-242-148-248-149-249-151-251-155-255-
160-260-221600-
WEST CENTRAL FLORIDA

CITY           SKY/WX    TMP DP  RH WIND       PRES   REMARKS
CRYSTAL RIVER  PTSUNNY   84  73  70 W6        30.09S
INVERNESS      FAIR      82  79  89 W3        30.09S THUNDER HAZE
BROOKSVILLE    MOSUNNY   88  77  69 SW9       30.10F HX 100
CLEARWATER AIR FAIR      79  77  94 S5        30.10S
ST PETE CLEARW CLOUDY    81  75  82 S6        30.10S
TAMPA INTL     CLOUDY    82  76  81 S7        30.10F
TAMPA EXEC     PTSUNNY   86  75  70 S7        30.10F HX  95
PLANT CITY     PTSUNNY   86  75  70 S20G28    30.13R HX  95
MACDILL AFB    CLOUDY    83  79  89 S7        30.10S
PETER O KNIGHT CLOUDY    82  81  94 SW6       30.11R HX  95
ST PETERSBURG  CLOUDY    82  74  76 SW7       30.09S
SARASOTA       LGT RAIN  76  72  87 E3        30.10R
VENICE         PTSUNNY   82  75  78 E5        30.12R THUNDER

STATION/POSITION SKY/WX   TEMP    WIND        PRES    WAVE   SWELL
                          AIR SEA DIR/SP/G            HT/PER HT/PER
                          (F)     (DEG/KT/KT) (MB)    (FT/S) (FT/S)
27.3N   84.2W                 87                N/A     1/ 8
CLEARWATER BEACH           81 88  140/  5/  9 1019.5R
MIDDLE TAMPA BAY           80     200/  5/  6 1019.9R
VENICE                     82 88   50/  2/  3 1019.8R

$$
FLZ066-069-070-075>078-162-262-165-265-221600-
SOUTHWEST FLORIDA AND KEYS

CITY           SKY/WX    TMP DP  RH WIND       PRES   REMARKS
PUNTA GORDA    LGT RAIN  81  75  82 N7        30.12R
FT MYERS       MOSUNNY   89  76  65 SW7       30.10R HX 100
SOUTHWEST INTL MOSUNNY   88  75  65 VRB6      30.11R HX  97
NAPLES         CLOUDY    87  77  72 S6        30.10R HX  99
MARCO ISLAND   MOSUNNY   88  75  66 S6        30.11R HX  97
IMMOKALEE      FAIR      88  77  70 CALM      30.12R HX 100
MARATHON       SUNNY     90  79  70 VRB6      30.09R HX 106
KEY WEST NAS   CLOUDY    88  79  74 SE9       30.10R HX 103
KEY WEST INTL  MOSUNNY   88  76  67 SE10      30.10R HX  99

STATION/POSITION SKY/WX   TEMP    WIND        PRES    WAVE   SWELL
                          AIR SEA DIR/SP/G            HT/PER HT/PER
                          (F)     (DEG/KT/KT) (MB)    (FT/S) (FT/S)
NAPLES                        88  150/  6/  7 1019.4R
DRY TORTUGAS               86     160/  8/ 10 1019.6R
SAND KEY                   85     160/ 12/ 14 1019.7R
MOLASSES REEF              84 86  110/ 10/ 12 1019.4R

$$
FLZ067-068-071>074-168-172>174-221600-
SOUTHEAST FLORIDA

CITY           SKY/WX    TMP DP  RH WIND       PRES   REMARKS
W PALM BEACH   CLOUDY    88  73  61 SE8       30.12R HX  95
FT LAUDER-EXEC PTSUNNY   87  71  58 SE6       30.11R
FT LAUDERDALE  PTSUNNY   86  77  74 SE8       30.10R HX  97
POMPANO BEACH  PTSUNNY   87  76  69 SE9       30.11R HX  97
PEMBROKE PINES MOSUNNY   88  75  65 SE6       30.12R HX  97
OPA LOCKA      MOSUNNY   88  78  72 SE6       30.11R HX 101
MIAMI          PTSUNNY   89  76  65 VRB7      30.11R HX 100
WEST KENDALL   MOSUNNY   87  76  69 SE8       30.11R HX  97
HOMESTEAD      MOSUNNY   88  77  69 E8        30.10S HX 100

STATION/POSITION SKY/WX   TEMP    WIND        PRES    WAVE   SWELL
                          AIR SEA DIR/SP/G            HT/PER HT/PER
                          (F)     (DEG/KT/KT) (MB)    (FT/S) (FT/S)
PORT EVERGLADES            86     140/  4/  6 1019.7R
VIRGINIA KEY                      100/  5/  8   N/A
LAKE WORTH                        160/  6/  7   N/A
FOWEY ROCKS                84 85  120/  9/ 11 1020.0R
SETTLEMENT POINT           85     190/  7/  9 1020.0R

$$




USA.gov is the U.S. government's official web portal to all federal, state and local government web resources and services.